User: anonymous   Login
Location: Caltech
(34.1382°N, 118.1253°W)
Time: 04:32:13
(UTC-08:00)
Language:

Meteor 1-11 Rocket - Orbit

View from above orbital plane
View from above orbital plane
View from above satellite
View from above satellite

Ground track
Ground track

The orbit data is extracted from the following two-line orbital elements,

1 05918U 72022B   17054.55368650 -.00000053  00000-0 -38930-4 0  9998
2 05918  81.2345  75.8014 0057035 286.5945  72.8965 14.05818268302029
Epoch (UTC): 23 February 2017 13:17:18
Eccentricity: 0.0057035
inclination: 81.2345°
perigee height: 832 km
apogee height: 915 km
right ascension of ascending node: 75.8014°
argument of perigee: 286.5945°
revolutions per day: 14.05818268
mean anomaly at epoch: 72.8965°
orbit number at epoch: 30202

The dashed part of the orbit path shows where the satellite is in the earth's shadow,  

DLR